STARLINK-33762, 63442

Orbit data source: Space-Track

STARLINK-33762, 63442 is a payload satellite owned by SpaceX/Seattle (US) in LEO that was launched on Fri, 04 Apr 2025 UTC via an FALCON 9 launch vehicle from the Air Force Western Test Range (AFWTR). Payload-class satellites include a variety of spacecraft equipped with specific instruments for various scientific and technological missions. These include communications satellites like Starlink; space stations such as the ISS; scientific satellites like the Hubble; Earth observation satellites from companies like Planet Labs, Umbra, and HawkEye 360; GPS; miniature CubeSats for education and research; and military/defense satellites.

Loading next visibility...
Identifier
63442, 2025-069K
Orbit
LEO
Country
Flag of USUS
Related business
Manufacturer
SpaceX/Seattle
Mission
Operational Commercial Communications
Bus & Motor
STARLINK V2MO, Unknown motor
Mass
575 kg wet, ~530 kg dry
Launch date (UTC)
2025-04-04 (1 year ago)
Launch vehicle
FALCON 9
Launch site
Air Force Western Test Range (AFWTR)
Object type
Payload
Rocket body
Debris
Shape & HBR
Box + 2 Pan, 17.7 m
Radar Cross Section
36.964 m², Large (>1 m²)

Expand to show TLE details & history
Last TLE update: 12 hours ago

TLE from 12 hours ago
0 STARLINK-33762
1 63442U 25069K   26145.25912230  .00026966  00000-0  62669-3 0  9994
2 63442  53.1590 144.2819 0001365  59.1430 300.9710 15.42171377 65166
Epoch: 2026-05-25T06:13Z
TLE epoch observation values (Epoch: 2026-05-25T06:13:08.166Z)
Latitude
-0.00004°
Longitude
168.14836°
Altitude
440.128 km
Speed
7.649 km/s
True Right ascension
09h 37m 07s
True Declination
0° 00' 00"
Sunlit
Object was in daylight at epoch
Visualization orbit readout
Latitude
Unknown
Longitude
Unknown
Altitude
Unknown
Speed
Unknown
Apparent Right ascension
Unknown
Apparent Declination
Unknown
Sunlit
N/A
Visualization observer readout
Local Sidereal Time
03:05:09
Azimuth
Unknown
Elevation
Unknown
Doppler factor
Unknown
Orbital elements
Apogee altitude
440.891 km
Perigee altitude
439.029 km
Semi-major axis
6,818.097 km
Eccentricity
0.00014
Inclination
53.159°
RAAN
144.2819°
Arg. of periapsis
59.143°
True anomaly
300.95759°
Mean anomaly
300.971°
Eccentric anomaly
300.96429°
Mean motion
3.85521 °/min
Orbital period
93.38 mins
BSTAR
0.00062669
Loading maneuver chart data...
Computing Atmospheric mass density...
Loading historical data...
Loading historical data...
Loading historical data...
Loading historical data...
Loading historical data...
Loading historical data...
Loading historical data...

Documentation

Showing up to 5 results
|